Content
SEND FEEDBACK

Daily
Averages
Monthly
Summary
United States of America

FAYETTEVILLE, TENNESSEE


Home > North America > United States > Tennessee
Elevation: 700 feet     Latitude: 35 10N     Longitude: 086 33W

WEATHER
 
SELECT A DAY
Number of Records: 298,666;   Date Range: 4/22/02 - 9/20/14
 
SHARE

PRINT THIS DATA

[ ← Previous Day ]
WEATHER ALMANAC - OCTOBER 15, 2013
[ Next Day → ]
[ °C ]   °F
Weather ElementAverageHighLow
Temperature65.9 °F71.6 °F (11:15 am)62.6 °F (1:15 am)
Dewpoint54.3 °F57.2 °F (1:15 am)50 °F (11:15 am)
Humidity67.3 %82 % (1:15 am)46 % (11:15 am)
Barometer30.09 in30.14 in (12:55 am)30.03 in (11:55 pm)
Wind Speed4 mph12.7 mph (11:15 am)
Wind Gust19.6 mph (11:15 am)
Weather ElementAverage
Visibility10 mi
Wind DirectionENE (82.3 °)

Weather ElementTotal
Precipitation---
Cooling Degree Days2.1 (Base 65)
Growing Degree Days17.1 (Base 50)
Averaged from 70 records on October 15, 2013
WEATHER CONDITIONS BREAKOUT
WIND DIRECTION BREAKOUT
WEATHER BY HOUR - OCTOBER 15, 2013
[ °C ]   °F
Local TimeTemperatureDewpointHumidityBarometerVisibilityWind DirectionWind SpeedGust SpeedPrecipitationEventsConditions
12:35 AM64.4 °F55.4 °F73 %30.12 in10.0 miSE (140°)4.6 mphClear
12:55 AM64.4 °F55.4 °F73 %30.14 in10.0 miCalmClear
1:15 AM62.6 °F57.2 °F82 %30.14 in10.0 miCalmClear
1:35 AM64.4 °F55.4 °F73 %30.13 in10.0 miCalmClear
1:55 AM64.4 °F55.4 °F73 %30.13 in10.0 miCalmClear
2:15 AM62.6 °F55.4 °F77 %30.13 in10.0 miCalmClear
2:35 AM64.4 °F55.4 °F73 %30.13 in10.0 miSE (140°)3.5 mphClear
2:55 AM64.4 °F55.4 °F73 %30.13 in10.0 miSSE (150°)3.5 mphClear
3:15 AM62.6 °F55.4 °F77 %30.12 in10.0 miCalmClear
3:35 AM62.6 °F55.4 °F77 %30.12 in10.0 miCalmClear
3:55 AM62.6 °F55.4 °F77 %30.13 in10.0 miCalmClear
4:15 AM62.6 °F57.2 °F82 %30.13 in10.0 miCalmClear
4:35 AM62.6 °F57.2 °F82 %30.13 in10.0 miCalmClear
4:55 AM62.6 °F57.2 °F82 %30.12 in10.0 miCalmClear
5:15 AM62.6 °F57.2 °F82 %30.12 in10.0 miCalmClear
5:35 AM62.6 °F57.2 °F82 %30.12 in10.0 miCalmClear
5:55 AM62.6 °F57.2 °F82 %30.12 in10.0 miESE (120°)3.5 mphClear
6:15 AM62.6 °F55.4 °F77 %30.12 in10.0 miCalmClear
6:35 AM62.6 °F55.4 °F77 %30.12 in10.0 miCalmClear
6:55 AM62.6 °F57.2 °F82 %30.13 in10.0 miCalmClear
7:15 AM62.6 °F55.4 °F77 %30.13 in10.0 miCalmClear
7:35 AM62.6 °F55.4 °F77 %30.13 in10.0 miCalmClear
7:55 AM62.6 °F55.4 °F77 %30.13 in10.0 miSE (130°)6.9 mphClear
8:15 AM64.4 °F55.4 °F73 %30.13 in10.0 miSSE (150°)6.9 mphClear
8:35 AM64.4 °F55.4 °F73 %30.14 in10.0 miSSE (150°)6.9 mphClear
8:55 AM64.4 °F55.4 °F73 %30.14 in10.0 miSSE (150°)5.8 mphClear
9:15 AM66.2 °F55.4 °F68 %30.14 in10.0 miSE (140°)8.1 mphClear
9:35 AM68.0 °F53.6 °F60 %30.13 in10.0 miSE (140°)6.9 mphClear
9:55 AM68.0 °F53.6 °F60 %30.13 in10.0 miSE (140°)6.9 mphClear
10:15 AM68.0 °F51.8 °F56 %30.13 in10.0 miSSE (150°)8.1 mphClear
10:35 AM69.8 °F51.8 °F53 %30.12 in10.0 miSSE (150°)11.5 mph17.3 mphClear
10:55 AM69.8 °F51.8 °F53 %30.12 in10.0 miSSE (160°)10.4 mph18.4 mphClear
11:15 AM71.6 °F50.0 °F46 %30.12 in10.0 miSSE (150°)12.7 mph19.6 mphScattered Clouds
11:35 AM71.6 °F51.8 °F50 %30.11 in10.0 miSE (140°)10.4 mph17.3 mphScattered Clouds
11:55 AM71.6 °F50.0 °F46 %30.11 in10.0 miSSE (150°)10.4 mph16.1 mphScattered Clouds
12:15 PM71.6 °F51.8 °F50 %30.10 in10.0 miSE (140°)8.1 mphScattered Clouds
12:35 PM71.6 °F51.8 °F50 %30.10 in10.0 miSE (140°)6.9 mphMostly Cloudy
12:55 PM71.6 °F50.0 °F46 %30.09 in10.0 miSSE (150°)9.2 mphMostly Cloudy
1:15 PM71.6 °F51.8 °F50 %30.08 in10.0 miSE (130°)8.1 mphMostly Cloudy
1:35 PM71.6 °F51.8 °F50 %30.06 in10.0 miESE (120°)8.1 mphScattered Clouds
1:55 PM71.6 °F51.8 °F50 %30.06 in10.0 miESE (110°)8.1 mphScattered Clouds
2:15 PM71.6 °F51.8 °F50 %30.06 in10.0 miESE (110°)5.8 mphScattered Clouds
2:35 PM71.6 °F51.8 °F50 %30.05 in10.0 miEast (100°)5.8 mphMostly Cloudy
2:55 PM71.6 °F51.8 °F50 %30.05 in10.0 miESE (110°)6.9 mphMostly Cloudy
3:15 PM71.6 °F51.8 °F50 %30.04 in10.0 miSE (130°)8.1 mphMostly Cloudy
3:35 PM69.8 °F51.8 °F53 %30.04 in10.0 miESE (110°)8.1 mphOvercast
3:55 PM69.8 °F51.8 °F53 %30.04 in10.0 miESE (120°)6.9 mphOvercast
4:15 PM69.8 °F53.6 °F56 %30.04 in10.0 miESE (120°)5.8 mphOvercast
4:35 PM69.8 °F51.8 °F53 %30.05 in10.0 miSE (130°)3.5 mphOvercast
4:55 PM69.8 °F53.6 °F56 %30.04 in10.0 miESE (120°)5.8 mphOvercast
5:15 PM69.8 °F51.8 °F53 %30.04 in10.0 miESE (120°)5.8 mphMostly Cloudy
5:35 PM69.8 °F53.6 °F56 %30.04 in10.0 miESE (120°)4.6 mphScattered Clouds
5:55 PM68.0 °F53.6 °F60 %30.04 in10.0 miCalmClear
6:15 PM68.0 °F53.6 °F60 %30.04 in10.0 miESE (120°)3.5 mphClear
6:35 PM64.4 °F53.6 °F68 %30.04 in10.0 miCalmClear
6:55 PM64.4 °F55.4 °F73 %30.04 in10.0 miCalmClear
7:15 PM62.6 °F55.4 °F77 %30.04 in10.0 miESE (120°)3.5 mphClear
7:55 PM62.6 °F55.4 °F77 %30.05 in10.0 miCalmClear
8:15 PM62.6 °F55.4 °F77 %30.05 in10.0 miSE (130°)3.5 mphClear
8:35 PM62.6 °F55.4 °F77 %30.06 in10.0 miCalmClear
8:55 PM62.6 °F55.4 °F77 %30.06 in10.0 miCalmClear
9:15 PM62.6 °F55.4 °F77 %30.06 in10.0 miCalmClear
9:35 PM62.6 °F55.4 °F77 %30.06 in10.0 miCalmClear
9:55 PM62.6 °F55.4 °F77 %30.06 in10.0 miSSE (150°)3.5 mphClear
10:15 PM62.6 °F55.4 °F77 %30.06 in10.0 miCalmClear
10:35 PM62.6 °F55.4 °F77 %30.06 in10.0 miSE (140°)3.5 mphClear
10:55 PM62.6 °F55.4 °F77 %30.05 in10.0 miSE (140°)4.6 mphClear
11:15 PM62.6 °F55.4 °F77 %30.05 in10.0 miSSE (150°)6.9 mphClear
11:35 PM62.6 °F55.4 °F77 %30.04 in10.0 miSE (140°)4.6 mphScattered Clouds
11:55 PM62.6 °F55.4 °F77 %30.03 in10.0 miSE (140°)6.9 mphScattered Clouds
Hourly data recorded from KMDQ, located miles away from Fayetteville, Tennessee







STORIES FROM OUR PARTNERS